This is the latest recevied weather packets stored in our database for station/object PD2BVG. If no packets are shown the sender has not sent any weather packets the latest 10 day(s).
| Time | Temp. | Humidity | Pressure | Rain* | Wind** | Luminosity | Snow |
|---|---|---|---|---|---|---|---|
| 1787927701 | 16.67° C | 98% | 1008.7 hPa | 0.25 mm | - | 194 W/m² | - |
| 1787927641 | 16.67° C | 98% | 1008.6 hPa | 0.51 mm | - | 188 W/m² | - |
| 1787927582 | 16.67° C | 98% | 1008.7 hPa | 0.51 mm | - | 183 W/m² | - |
| 1787927522 | 16.67° C | 98% | 1008.8 hPa | 0.51 mm | - | 179 W/m² | - |
| 1787927462 | 16.67° C | 98% | 1008.7 hPa | 0.51 mm | - | 179 W/m² | - |
| 1787927401 | 16.67° C | 98% | 1008.7 hPa | 0.51 mm | - | 167 W/m² | - |
| 1787927341 | 16.67° C | 98% | 1008.8 hPa | 0.51 mm | - | 153 W/m² | - |
| 1787927280 | 16.67° C | 98% | 1008.8 hPa | 1.02 mm | - | 148 W/m² | - |
| 1787927221 | 16.67° C | 98% | 1008.7 hPa | 1.02 mm | - | 144 W/m² | - |
| 1787927162 | 16.67° C | 98% | 1008.7 hPa | 1.27 mm | - | 143 W/m² | - |
| 1787927101 | 16.67° C | 98% | 1008.7 hPa | 1.52 mm | - | 141 W/m² | - |
| 1787927042 | 16.67° C | 98% | 1008.8 hPa | 2.03 mm | - | 139 W/m² | - |
| 1787926983 | 16.11° C | 98% | 1008.8 hPa | 2.54 mm | - | 139 W/m² | - |
| 1787926924 | 16.11° C | 98% | 1008.8 hPa | 3.05 mm | - | 134 W/m² | - |
| 1787926864 | 16.11° C | 98% | 1008.8 hPa | 3.81 mm | - | 123 W/m² | - |
| 1787926801 | 16.11° C | 98% | 1008.9 hPa | 4.32 mm | - | 99 W/m² | - |
| 1787926742 | 16.11° C | 98% | 1008.8 hPa | 5.33 mm | - | 99 W/m² | - |
| 1787926681 | 16.11° C | 98% | 1008.8 hPa | 5.59 mm | - | 85 W/m² | - |
| 1787926621 | 16.11° C | 98% | 1008.7 hPa | 5.59 mm | - | 79 W/m² | - |
| 1787926562 | 16.11° C | 98% | 1008.8 hPa | 5.59 mm | - | 76 W/m² | - |
| 1787926501 | 16.11° C | 98% | 1008.7 hPa | 5.59 mm | - | 72 W/m² | - |
| 1787926443 | 16.11° C | 98% | 1008.7 hPa | 5.59 mm | - | 70 W/m² | - |
| 1787926381 | 16.11° C | 98% | 1008.8 hPa | 5.59 mm | - | 69 W/m² | - |
| 1787926322 | 16.11° C | 98% | 1008.7 hPa | 5.59 mm | - | 67 W/m² | - |
| 1787926261 | 16.11° C | 98% | 1008.8 hPa | 5.59 mm | - | 67 W/m² | - |
* Rain latest hour (hover to see other rain measurements)
** Current wind speed in m/s (hover to see current wind gust speed)